Location: *
(10.4782°N, 67.2163°W)
Time: 21:19:32
(UTC+00:00)

Cosmos 1943 - Visible Passes

Search period start: 19 May 2025 00:00
Search period end: 29 May 2025 00:00
Orbit: 831 x 849 km, 71.0° (Epoch: 19 May)

Date Brightness Start Highest point End Pass type
(mag) Time Alt. Az. Time Alt. Az. Time Alt. Az.
19 May 5.3 23:00:32 10° SW 23:05:30 33° WNW 23:10:29 10° N visible
21 May 3.2 09:38:45 10° NNW 09:44:25 78° WSW 09:50:05 10° SSE visible
22 May 3.2 09:23:10 10° NNW 09:28:51 85° WSW 09:34:31 10° SSE visible
23 May 3.2 09:07:36 10° NNW 09:13:17 88° ENE 09:18:58 10° SSE visible
24 May 3.3 08:52:02 10° NNW 08:57:43 82° ENE 09:03:23 10° SSE visible
25 May 3.3 08:36:29 10° NNW 08:42:09 75° ENE 08:47:48 10° SSE visible
26 May 3.4 08:20:56 10° N 08:26:34 69° ENE 08:32:12 10° SSE visible
27 May 3.5 08:05:23 10° N 08:11:00 64° ENE 08:16:36 10° SSE visible
28 May 3.7 07:49:51 10° N 07:55:26 58° ENE 08:00:59 10° SSE visible
